GOES 19

Last updated on Fri Dec 19 2025 00:02:26 GMT+0000 (Coordinated Universal Time)

1 60133U 24119A 25352.61037497 -.00000223 00000+0 00000+0 0 9990 2 60133 0.0074 96.5240 0001038 227.1623 268.3322 1.00271525 5157
UTC large
Height (km)
Speed (km/s)
/
Latitude / Longitude
Inclination (degrees)
Orbital Period (minutes)
Azimuth
Elevation
Range (km)
Doppler Factor

Next 0 passes for location: London (51.5072 / 0.1276)

Sorry there are no passes over London.